Regional Weather Roundup
Issued by NWS

Home | Current Version | Previous Version | Graphics & Text | Print | Product List | Glossary On
Versions: 1 2 3 4 5 6 7 8 9 10 11 12 13 14 15 16 17 18 19 20 21 22 23 24 25 26 27 28 29 30 31 32 33 34 35 36 37 38 39 40 41 42 43 44 45 46 47 48 49 50
000
ASUS45 KCYS 201910
RWRWY

WYOMING REGIONAL WEATHER ROUNDUP
NATIONAL WEATHER SERVICE CHEYENNE WY
1200 PM MST SAT DEC 20 2014

NOTE:  "FAIR" INDICATES FEW OR NO CLOUDS BELOW 12,000 FEET
WITH NO SIGNIFICANT WEATHER AND/OR OBSTRUCTIONS TO VISIBILITY.

WYZ001-202000-
YELLOWSTONE NATIONAL PARK

CITY           SKY/WX    TMP DP  RH WIND       PRES   REMARKS
LK YELLOWSTONE   N/A     27  21  78 VRB5      29.96F WCI  22
W YELLOWSTONE  NOT AVBL

$$
WYZ002>013-054>058-071-098>099-202000-
NORTHERN WYOMING

CITY           SKY/WX    TMP DP  RH WIND       PRES   REMARKS
JACKSON        PTSUNNY   32  27  80 CALM      29.99F
CODY           PTSUNNY   41  21  45 S8        29.90F
GREYBULL       FAIR      20  15  81 CALM      29.96F
WORLAND        FAIR      20  15  81 SW10      29.94F WCI   9
SHERIDAN       FAIR      43  24  47 CALM      29.89F
BUFFALO        FAIR      42  25  50 SE10      29.90F
GILLETTE       FAIR      42  26  53 SW8       29.92F
HULETT           N/A    N/A N/A N/A MISG        N/A
NEWCASTLE      FAIR      39  25  56 W5        29.95F

$$
WYZ014>020-022>026-101>103-202000-
CENTRAL WYOMING

CITY           SKY/WX    TMP DP  RH WIND       PRES   REMARKS
BIG PINEY      CLOUDY    30  23  75 CALM      30.01F
PINEDALE       FAIR      30  25  80 CALM      30.01F
DUBOIS         NOT AVBL
LANDER         FAIR      23  16  74 CALM      29.93F
RIVERTON       FAIR      23  17  78 SW8       29.95F WCI  14
CASPER         FAIR      35  26  69 SW21G28   29.95F WCI  24
DOUGLAS        CLOUDY    42  25  50 W10       29.96F

$$
WYZ021-027>030-104>119-202000-
SOUTHERN WYOMING

CITY           SKY/WX    TMP DP  RH WIND       PRES   REMARKS
EVANSTON       LGT SNOW  31  29  92 SW13      30.04F FOG     WCI  21
KEMMERER       LGT SNOW  32  30  93 SW9       30.03F WCI  24
FORT BRIDGER   CLOUDY    35  29  79 W14       30.07F WCI  26
ROCK SPRINGS   CLOUDY    33  26  75 W12       30.04F WCI  24
DIXON          CLOUDY    33  25  71 SW13      30.10F WCI  24
RAWLINS        CLOUDY    32  23  69 SW14G21   30.02F WCI  22
SARATOGA       CLOUDY    32  27  80 MISG      30.04F
LARAMIE        CLOUDY    34  22  61 S15       29.99F WCI  24
CHEYENNE       PTSUNNY   45  19  35 W22G32    29.99F
TORRINGTON     FAIR     N/A N/A N/A W15       29.95F
PINE BLUFFS    FAIR      43  23  45 W16G24    29.97F

$$



USA.gov is the U.S. government's official web portal to all federal, state and local government web resources and services.